#timestamp,LO_Frequency,Hit,StdDev 
1556254815.3,286046997.1,P
1556254835.1,286046997.5,P
1556254855.9,286046996.7,Y
1556254875.7,286047000.5,P
1556254895.6,286047002.3,N
1556254915.4,286047002.4,N
1556254935.2,286047000.0,N
1556254955.1,286047002.7,N
1556254956.0,286047002.7,N
1556254975.8,286046999.7,N
1556254995.6,286047002.4,N
1556255015.5,286047002.4,N
1556255035.3,286046999.8,N
1556255055.2,286046998.8,N
1556255075.9,286047001.1,N
1556255095.7,286047002.6,N
1556255115.6,286047001.8,N
1556255135.4,286047002.3,N
1556255155.2,286047004.3,N
1556255175.1,286047001.7,N
1556255176.0,286047001.7,N
1556255195.8,286047004.2,N
1556255215.7,286047001.6,N
1556255235.5,286047003.3,N
1556255255.3,286047006.0,Y
1556255275.2,286047000.4,P
1556255295.0,286046999.4,N
1556255295.9,286046999.4,N
1556255315.7,286047000.8,N
1556255335.6,286047000.9,N
1556255355.4,286047001.4,N
1556255375.3,286047000.3,N
1556255395.1,286047000.9,N
1556255396.0,286047000.9,N
1556255415.8,286046998.2,N
1556255435.7,286046998.4,N
1556255455.5,286047000.6,N
1556255475.3,286046998.6,N
1556255495.2,286046998.5,N
1556255515.0,286046998.6,N
1556255515.9,286046998.6,N
1556255535.8,286046998.6,N
1556255555.6,286046998.2,N
1556255575.4,286046999.2,N
1556255595.3,286046999.9,N
1556255615.1,286047000.8,N
1556255635.8,286046999.6,N
1556255655.7,286046997.0,N
1556255675.5,286046998.9,N
1556255695.4,286046997.9,N
1556255715.2,286046995.5,Y
1556255735.0,286046996.4,P
1556255735.9,286046996.4,N
1556255755.8,286046995.2,P
1556255775.6,286046999.4,N
1556255795.5,286047001.0,N
1556255815.3,286047001.8,N
1556255835.1,286046998.5,N
1556255855.9,286047000.8,N
1556255875.7,286046997.3,N
1556255895.5,286047001.0,N
1556255915.4,286046999.1,N
1556255935.2,286046998.6,N
1556255955.1,286046997.4,N
1556255956.0,286046997.4,N
1556255975.8,286046999.9,N
1556255995.6,286046998.4,N
1556256015.5,286046997.9,N
1556256035.3,286046998.0,N
1556256055.1,286046999.5,N
1556256075.9,286046997.0,N
1556256095.7,286046996.2,N
1556256115.5,286046997.0,N
1556256135.4,286047000.8,N
1556256155.2,286047000.9,N
1556256175.1,286047001.5,N
1556256176.0,286047001.5,N
1556256195.8,286047002.3,N
1556256215.6,286046998.5,N
1556256235.5,286047000.9,N
1556256255.3,286047001.3,N
1556256275.1,286047000.9,N
1556256295.9,286047000.5,N
1556256315.7,286046998.6,N
1556256335.6,286046999.3,N
1556256355.4,286046996.5,N
1556256375.2,286046998.0,N
1556256395.1,286047000.8,N
1556256396.0,286047000.8,N
1556256415.8,286047000.2,N
1556256435.7,286047002.8,N
1556256455.5,286047002.1,N
1556256475.3,286047002.6,N
1556256495.2,286047001.9,N
1556256515.9,286047001.5,N
1556256535.7,286047003.7,N
1556256555.6,286047004.1,N
1556256575.4,286047000.3,N
1556256595.2,286046999.0,N
1556256615.1,286047002.6,N
1556256616.0,286047002.6,N
1556256635.8,286047001.7,N
1556256655.7,286047001.3,N
1556256675.5,286047001.5,N
1556256695.3,286047002.3,N
1556256715.2,286047004.4,N
1556256735.0,286047002.2,N
1556256735.9,286047002.2,N
1556256755.8,286047000.4,N
1556256775.6,286047000.2,N
1556256795.4,286047000.4,N
1556256815.3,286047001.7,N
1556256835.1,286047001.5,N
1556256855.8,286047002.3,N
1556256875.7,286047002.2,N
1556256895.5,286046999.9,N
1556256915.4,286047003.9,N
1556256935.2,286047002.1,N
1556256955.0,286047002.8,N
1556256955.9,286047002.8,N
1556256975.8,286047003.8,Y
1556256995.6,286047005.7,P
1556257015.5,286047002.8,N
1556257035.3,286047001.4,N
1556257055.1,286047002.1,N
1556257075.9,286047002.0,N
1556257095.7,286046999.8,N
1556257115.5,286047002.5,N
1556257135.4,286047002.8,N
1556257155.2,286047001.4,N
1556257175.1,286047004.9,Y
1556257176.0,286047004.9,P
1556257195.8,286047000.1,N
1556257215.6,286047000.3,N
1556257235.5,286047000.6,N
1556257255.3,286046998.8,N
1556257275.1,286046996.6,N
1556257295.9,286046995.7,N
1556257315.7,286046994.3,N
1556257335.6,286046993.6,N
1556257355.4,286046997.1,N
1556257375.2,286046996.8,N
1556257395.1,286046995.1,N
1556257396.0,286046995.1,N
1556257415.8,286046995.0,N
1556257435.6,286046993.4,N
1556257455.5,286046997.7,N
1556257475.3,286046995.4,N
1556257495.1,286046995.4,N
1556257515.9,286046993.5,N
1556257535.7,286046994.5,N
1556257555.6,286046997.4,N
1556257575.4,286046997.3,N
1556257595.4,286046998.2,N
1556257615.2,286047002.8,N
1556257635.0,286046999.8,N
1556257635.9,286046999.8,N
1556257655.8,286047000.0,N
1556257675.6,286046998.9,N
1556257695.5,286047000.0,N
1556257715.3,286047004.4,N
1556257735.1,286047001.9,N
1556257755.9,286047000.7,N
1556257775.7,286047000.1,N
1556257795.5,286046999.9,N
1556257815.4,286047002.0,N
1556257835.2,286046998.6,N
1556257855.1,286046997.3,N
1556257856.0,286046997.3,N
1556257875.8,286046999.2,N
1556257895.6,286046998.8,N
1556257915.5,286046999.6,N
1556257935.3,286046998.7,N
1556257955.1,286046998.5,N
1556257975.9,286046996.7,N
1556257995.7,286046999.6,N
1556258015.6,286046998.5,N
1556258035.4,286046997.6,N
1556258055.2,286046997.5,N
1556258075.1,286046995.0,N
1556258076.0,286046995.0,N
1556258095.8,286046995.5,N
1556258115.6,286046997.4,N
1556258135.5,286046998.9,N
1556258155.3,286047000.2,N
1556258175.2,286046999.8,N
1556258195.9,286046998.8,N
1556258215.7,286047001.2,N
1556258235.6,286046998.8,N
1556258255.4,286046995.6,N
1556258275.2,286046993.6,Y
1556258295.1,286046997.2,P
1556258296.0,286046997.2,P
1556258315.8,286046995.4,P
1556258335.7,286046997.5,N
1556258355.5,286047001.2,N
1556258375.3,286047001.1,N
1556258395.2,286046999.7,N
